Le nostre stazioni meteo in Italia

Pubblicità
Il mio iltempo24.it
Novara/Cameri, Italia (16064): Temperatura & dewpoint: 13.04.2019 17:00:00 - 19.04.2019 17:00:00 (CEST)Novara/Cameri, Italia (16064): velocità del vento: 13.04.2019 17:00:00 - 19.04.2019 17:00:00 (CEST)Novara/Cameri, Italia (16064): direzione del vento: 13.04.2019 17:00:00 - 19.04.2019 17:00:00 (CEST)Novara/Cameri, Italia (16064): reduced air pressure: 13.04.2019 17:00:00 - 19.04.2019 17:00:00 (CEST)Novara/Cameri, Italia (16064): visibility: 13.04.2019 17:00:00 - 19.04.2019 17:00:00 (CEST)Novara/Cameri, Italia (16064): ore di luce: 13.04.2019 17:00:00 - 19.04.2019 17:00:00 (CEST)
Data & Tempo tt [°C] td [°C] ff [km/h] ff [kn] dd ppp [hPa] vv [km] sd [min]
19.04.2019 17:00:00 20,8 6,7 9 5 E 1028,0 10 60
19.04.2019 16:00:00 21,0 7,0 11 6 SE - 10 -
19.04.2019 15:00:00 20,0 7,0 13 7 SE - 10 -
19.04.2019 14:00:00 19,4 6,8 11 6 S 1029,6 10 60
19.04.2019 13:00:00 19,0 7,0 15 8 S - 10 -
19.04.2019 12:00:00 19,0 7,0 13 7 ESE - 10 -
19.04.2019 11:00:00 18,0 6,5 11 6 E 1030,3 10 60
19.04.2019 10:00:00 17,0 7,0 9 5 E - 10 -
19.04.2019 09:00:00 15,0 7,0 9 5 NE - 10 -
19.04.2019 08:00:00 11,4 8,4 8 4 N 1029,7 10 -
19.04.2019 07:00:00 9,0 7,0 8 4 N - 10 -
19.04.2019 06:00:00 - - - - - - - -
19.04.2019 05:00:00 - - - - - - - -
19.04.2019 04:00:00 - - - - - - - -
19.04.2019 03:00:00 - - - - - - - -
19.04.2019 02:00:00 - - - - - - - -
19.04.2019 01:00:00 - - - - - - - -
19.04.2019 00:00:00 - - - - - - - -
18.04.2019 23:00:00 - - - - - - - -
18.04.2019 22:00:00 - - - - - - - -
18.04.2019 21:00:00 - - - - - - - -
18.04.2019 20:00:00 17,6 6,2 9 5 E 1024,2 10 0
18.04.2019 19:00:00 19,0 5,0 11 6 ESE - 10 -
18.04.2019 18:00:00 20,0 4,0 13 7 ESE - 10 -
18.04.2019 17:00:00 20,6 4,2 11 6 ESE 1023,3 10 60
18.04.2019 16:00:00 21,0 5,0 15 8 SE - 10 -
18.04.2019 15:00:00 21,0 6,0 9 5 E - 10 -
18.04.2019 14:00:00 19,8 5,8 11 6 E 1023,8 8 60
18.04.2019 13:00:00 19,0 8,0 15 8 ENE - 6 -
18.04.2019 12:00:00 18,0 8,0 11 6 E - 6 -
18.04.2019 11:00:00 17,0 8,4 11 6 ENE 1024,7 7 60
18.04.2019 10:00:00 15,0 8,0 13 7 ENE - 7 -
18.04.2019 09:00:00 13,0 7,0 8 4 NNE - 10 -
18.04.2019 08:00:00 9,2 5,8 8 4 N 1023,9 15 -
18.04.2019 07:00:00 8,0 5,0 15 8 NNO - 10 -
18.04.2019 06:00:00 - - - - - - - -
18.04.2019 05:00:00 - - - - - - - -
18.04.2019 04:00:00 - - - - - - - -
18.04.2019 03:00:00 - - - - - - - -
18.04.2019 02:00:00 - - - - - - - -
18.04.2019 01:00:00 - - - - - - - -
18.04.2019 00:00:00 - - - - - - - -
17.04.2019 23:00:00 - - - - - - - -
17.04.2019 22:00:00 - - - - - - - -
17.04.2019 21:00:00 - - - - - - - -
17.04.2019 20:00:00 18,8 4,2 5 3 OSO 1019,0 20 54
17.04.2019 19:00:00 21,0 4,0 8 4 SO - 10 -
17.04.2019 18:00:00 21,0 6,0 8 4 S - 10 -
17.04.2019 17:00:00 21,0 5,4 9 5 S 1019,2 20 60
17.04.2019 16:00:00 21,0 4,0 13 7 OSO - 10 -
17.04.2019 15:00:00 20,0 6,0 13 7 OSO - 10 -
17.04.2019 14:00:00 19,8 4,7 5 3 O 1019,9 10 60
17.04.2019 13:00:00 19,0 5,0 11 6 OSO - 10 -
17.04.2019 12:00:00 18,0 6,0 4 2 - - 10 -
17.04.2019 11:00:00 16,2 6,4 4 2 N 1020,9 10 60
17.04.2019 10:00:00 14,0 6,0 8 4 NE - 10 -
17.04.2019 09:00:00 12,0 7,0 8 4 N - 10 -
17.04.2019 08:00:00 7,4 6,0 9 5 NNO 1021,2 20 -
17.04.2019 07:00:00 6,0 5,0 2 1 - - 10 -
17.04.2019 06:00:00 - - - - - - - -
17.04.2019 05:00:00 - - - - - - - -
17.04.2019 04:00:00 - - - - - - - -
17.04.2019 03:00:00 - - - - - - - -
17.04.2019 02:00:00 - - - - - - - -
17.04.2019 01:00:00 - - - - - - - -
17.04.2019 00:00:00 - - - - - - - -
16.04.2019 23:00:00 - - - - - - - -
16.04.2019 22:00:00 - - - - - - - -
16.04.2019 21:00:00 - - - - - - - -
16.04.2019 20:00:00 14,6 7,7 9 5 N 1019,2 20 0
16.04.2019 19:00:00 16,0 7,0 11 6 N - 10 -
16.04.2019 18:00:00 17,0 7,0 13 7 N - 10 -
16.04.2019 17:00:00 17,8 5,1 15 8 N 1018,7 20 18
16.04.2019 16:00:00 18,0 4,0 11 6 SO - 10 -
16.04.2019 15:00:00 18,0 4,0 8 4 SSO - 10 -
16.04.2019 14:00:00 17,6 4,9 11 6 SSE 1019,0 15 48
16.04.2019 13:00:00 18,0 6,0 11 6 S - 10 -
16.04.2019 12:00:00 16,0 7,0 8 4 ESE - 10 -
16.04.2019 11:00:00 15,0 6,3 4 2 N 1019,8 20 36
16.04.2019 10:00:00 13,0 6,0 5 3 N - 10 -
16.04.2019 09:00:00 11,0 7,0 5 3 N - 10 -
16.04.2019 08:00:00 8,6 6,2 4 2 N 1020,1 20 -
16.04.2019 07:00:00 8,0 6,0 9 5 NNO - 10 -
16.04.2019 06:00:00 - - - - - - - -
16.04.2019 05:00:00 - - - - - - - -
16.04.2019 04:00:00 - - - - - - - -
16.04.2019 03:00:00 - - - - - - - -
16.04.2019 02:00:00 - - - - - - - -
16.04.2019 01:00:00 - - - - - - - -
16.04.2019 00:00:00 - - - - - - - -
15.04.2019 23:00:00 - - - - - - - -
15.04.2019 22:00:00 - - - - - - - -
15.04.2019 21:00:00 - - - - - - - -
15.04.2019 20:00:00 15,4 4,2 11 6 SSE 1018,7 30 60
15.04.2019 19:00:00 17,0 3,0 13 7 SSE - 10 -
15.04.2019 18:00:00 18,0 3,0 13 7 SSE - 10 -
15.04.2019 17:00:00 18,6 2,4 9 5 S 1018,9 30 60
15.04.2019 16:00:00 18,0 4,0 11 6 S - 10 -
15.04.2019 15:00:00 18,0 3,0 11 6 OSO - 10 -
15.04.2019 14:00:00 16,4 5,1 9 5 SO 1019,7 30 60
15.04.2019 13:00:00 16,0 6,0 9 5 SSO - 10 -
15.04.2019 12:00:00 14,0 6,0 8 4 S - 10 -
15.04.2019 11:00:00 13,0 5,4 4 2 N 1020,4 30 60
15.04.2019 10:00:00 12,0 5,0 5 3 NNE - 10 -
15.04.2019 09:00:00 10,0 6,0 5 3 N - 10 -
15.04.2019 08:00:00 6,4 6,1 0 0 N 1019,9 30 -
15.04.2019 07:00:00 7,0 6,0 4 2 O - 10 -
15.04.2019 06:00:00 - - - - - - - -
15.04.2019 05:00:00 - - - - - - - -
15.04.2019 04:00:00 - - - - - - - -
15.04.2019 03:00:00 - - - - - - - -
15.04.2019 02:00:00 - - - - - - - -
15.04.2019 01:00:00 - - - - - - - -
15.04.2019 00:00:00 - - - - - - - -
14.04.2019 23:00:00 - - - - - - - -
14.04.2019 22:00:00 - - - - - - - -
14.04.2019 21:00:00 - - - - - - - -
14.04.2019 20:00:00 - - - - - - - -
14.04.2019 19:00:00 - - - - - - - -
14.04.2019 18:00:00 - - - - - - - -
14.04.2019 17:00:00 - - - - - - - -
14.04.2019 16:00:00 - - - - - - - -
14.04.2019 15:00:00 - - - - - - - -
14.04.2019 14:00:00 - - - - - - - -
14.04.2019 13:00:00 - - - - - - - -
14.04.2019 12:00:00 - - - - - - - -
14.04.2019 11:00:00 - - - - - - - -
14.04.2019 10:00:00 - - - - - - - -
14.04.2019 09:00:00 - - - - - - - -
14.04.2019 08:00:00 - - - - - - - -
14.04.2019 07:00:00 - - - - - - - -
14.04.2019 06:00:00 - - - - - - - -
14.04.2019 05:00:00 - - - - - - - -
14.04.2019 04:00:00 - - - - - - - -
14.04.2019 03:00:00 - - - - - - - -
14.04.2019 02:00:00 - - - - - - - -
14.04.2019 01:00:00 - - - - - - - -
14.04.2019 00:00:00 - - - - - - - -
13.04.2019 23:00:00 - - - - - - - -
13.04.2019 22:00:00 - - - - - - - -
13.04.2019 21:00:00 - - - - - - - -
13.04.2019 20:00:00 - - - - - - - -
13.04.2019 19:00:00 - - - - - - - -
13.04.2019 18:00:00 - - - - - - - -
13.04.2019 17:00:00 - - - - - - - -

tt = Temperatura
td = dewpoint
ff = velocità del vento
dd = direzione del vento
ppp = reduced air pressure
vv = visibility
sd = ore di luce

Stazioni seguenti

WeatherPro
AMSI
MeteoEarth